Location: Audrecelles
(50.8240°N, 1.5923°E)
Time: 02:20:55
(UTC+00:00)

Cosmos 44 - Pass Details

Date: 19 October 2025
Orbit: 576 x 774 km, 65.1° (Epoch: 13 November)

Event Time Altitude Azimuth Distance (km) Brightness Sun altitude
Exits shadow 03:20:42 22° 353° (N) 1,530 5.1 -29.2°
Maximum altitude 03:22:45 29° 31° (NNE) 1,304 5.1 -28.9°
Drops below altitude 10° 03:27:16 10° 92° (E) 2,266 6.8 -28.2°
Sets 03:30:00 0° 103° (ESE) 3,212 7.6 -27.8°
